Marianna, WV

6:55 AM EST on February 22, 2017 (GMT -0500)
Pineville

Weather History for KI16 - August, 2013

Change the Weather History Date:

Wednesday, August 21, 2013

  Actual Average (KBKW) Record (KBKW)
Temperature  
Mean Temperature 74 °F -  
Max Temperature 82 °F 77 °F 95 °F (1936)
Min Temperature 65 °F 58 °F 34 °F (1940)
Cooling Degree Days 8    
Growing Degree Days 24 (Base 50)    
Moisture  
Dew Point 70 °F    
Average Humidity 92    
Maximum Humidity 100    
Minimum Humidity 71    
Precipitation  
Precipitation 0.00 in - - ()
Sea Level Pressure  
Sea Level Pressure 30.27 in    
Wind  
Wind Speed - (North)    
Max Wind Speed -    
Max Gust Speed -    
Visibility 7 miles    
Events Fog , Rain    
Averages and records for this station are not official NWS values.
T = Trace of Precipitation, MM = Missing Value Source: NWS Daily Summary

Daily Weather History Graph

Daily Weather History Graph

Search for Another Location

Airport or City:

Trip Planner

Search our weather history database for the weather conditions in past years. The results will help you decide how hot, cold, wet, or windy it might be!

Date:

Astronomy

Aug. 21, 2013 Rise Set
Actual Time 6:47 AM EDT 8:10 PM EDT
Civil Twilight 6:19 AM EDT 8:37 PM EDT
Nautical Twilight 5:47 AM EDT 9:10 PM EDT
Astronomical Twilight 5:12 AM EDT 9:45 PM EDT
Moon 8:21 PM EDT (8/21) 7:23 AM EDT (8/21)
Length of Visible Light 14h 18m
Length of Day
13h 23m
Full, 100% of the Moon is Illuminated
Aug 21
Full
Aug 28
Last Quarter
Sep 5
New
Sep 12
First Quarter
Sep 19
Full

Hourly Weather History & Observations

Time (EDT) Temp. Heat Index Dew Point Humidity Pressure Visibility Wind Dir Wind Speed Gust Speed Precip Events Conditions
12:15 AM 69.3 °F - 69.3 °F 100% 30.26 in 5.0 mi North - - N/A   Scattered Clouds
12:35 AM 69.3 °F - 69.3 °F 100% 30.26 in 4.0 mi North - - N/A   Clear
12:55 AM 69.1 °F - 69.1 °F 100% 30.27 in 4.0 mi North - - N/A   Scattered Clouds
1:15 AM 69.4 °F - 69.4 °F 100% 30.27 in 5.0 mi North - - N/A   Mostly Cloudy
1:35 AM 69.8 °F - 69.8 °F 100% 30.26 in 5.0 mi North - - N/A   Overcast
1:55 AM 69.8 °F - 69.8 °F 100% 30.26 in 5.0 mi North - - N/A   Overcast
2:15 AM 69.6 °F - 69.6 °F 100% 30.26 in 5.0 mi North - - N/A   Overcast
2:35 AM 69.8 °F - 69.8 °F 100% 30.26 in 4.0 mi North - - N/A Rain Light Rain
2:55 AM 69.8 °F - 69.8 °F 100% 30.26 in 3.0 mi North - - N/A   Overcast
3:15 AM 69.4 °F - 69.4 °F 100% 30.26 in 3.0 mi North - - N/A   Mostly Cloudy
3:35 AM 69.3 °F - 69.3 °F 100% 30.26 in 3.0 mi North - - N/A   Scattered Clouds
3:55 AM 69.1 °F - 69.1 °F 100% 30.26 in 5.0 mi North - - N/A   Mostly Cloudy
4:15 AM 68.7 °F - 68.7 °F 100% 30.25 in 3.0 mi North - - N/A   Mostly Cloudy
4:35 AM 68.2 °F - 68.2 °F 100% 30.25 in 4.0 mi North - - N/A   Mostly Cloudy
4:55 AM 68.4 °F - 68.4 °F 100% 30.25 in 4.0 mi North - - N/A   Overcast
5:15 AM 68.2 °F - 68.2 °F 100% 30.25 in 1.8 mi North - - N/A   Overcast
5:35 AM 68.2 °F - 68.2 °F 100% 30.25 in 1.0 mi North - - N/A   Overcast
5:55 AM 68.5 °F - 68.5 °F 100% 30.26 in 0.2 mi North - - N/A Fog Fog
6:15 AM 68.4 °F - 68.4 °F 100% 30.27 in 0.5 mi North - - N/A Fog Fog
6:35 AM 68.2 °F - 68.2 °F 100% 30.28 in 0.5 mi North - - N/A Fog Fog
6:55 AM 68.2 °F - 68.2 °F 100% 30.28 in 0.8 mi North - - N/A   Overcast
7:15 AM 68.0 °F - 68.0 °F 100% 30.29 in 0.2 mi North - - N/A Fog Fog
7:35 AM 68.2 °F - 68.2 °F 100% 30.30 in 0.2 mi North - - N/A Fog Fog
7:55 AM 68.2 °F - 68.2 °F 100% 30.30 in 0.8 mi North - - N/A   Overcast
8:15 AM 68.5 °F - 68.5 °F 100% 30.30 in 2.0 mi North - - N/A   Overcast
8:35 AM 69.1 °F - 69.1 °F 100% 30.30 in 10.0 mi North - - N/A   Overcast
8:55 AM 70.7 °F - 70.7 °F 100% 30.30 in 10.0 mi North - - N/A   Mostly Cloudy
9:15 AM 71.2 °F - 71.2 °F 100% 30.31 in 10.0 mi North - - N/A   Scattered Clouds
9:35 AM 72.1 °F - 71.8 °F 99% 30.31 in 10.0 mi North - - N/A   Clear
9:55 AM 72.9 °F - 71.2 °F 95% 30.31 in 10.0 mi North - - N/A   Clear
10:15 AM 74.5 °F - 72.1 °F 92% 30.32 in 10.0 mi North - - N/A   Clear
10:35 AM 74.8 °F - 71.6 °F 90% 30.32 in 10.0 mi North - - N/A   Scattered Clouds
10:55 AM 75.0 °F - 72.0 °F 90% 30.32 in 10.0 mi North - - N/A   Scattered Clouds
11:15 AM 76.6 °F - 71.4 °F 84% 30.32 in 10.0 mi North - - N/A   Clear
11:35 AM 77.0 °F - 71.4 °F 83% 30.31 in 10.0 mi North - - N/A   Clear
11:55 AM 77.9 °F - 72.1 °F 82% 30.31 in 10.0 mi North - - N/A   Clear
12:15 PM 79.0 °F - 72.0 °F 79% 30.30 in 10.0 mi North - - N/A   Scattered Clouds
12:35 PM 80.6 °F 84.7 °F 72.1 °F 75% 30.30 in 10.0 mi North - - N/A   Mostly Cloudy
12:55 PM 81.0 °F 85.1 °F 71.6 °F 73% 30.30 in 10.0 mi North - - N/A   Scattered Clouds
1:15 PM 81.7 °F 86.3 °F 71.8 °F 72% 30.29 in 10.0 mi North - - N/A   Scattered Clouds
1:35 PM 78.8 °F - 73.4 °F 83% 30.29 in 10.0 mi North - - N/A Rain Light Rain
1:55 PM 81.1 °F 85.6 °F 72.1 °F 74% 30.28 in 10.0 mi North - - N/A   Scattered Clouds
2:15 PM 81.5 °F 86.3 °F 72.7 °F 74% 30.27 in 10.0 mi North - - N/A   Scattered Clouds
2:35 PM 82.0 °F 87.0 °F 72.1 °F 72% 30.26 in 10.0 mi North - - N/A   Clear
2:55 PM 82.0 °F 87.0 °F 72.3 °F 72% 30.26 in 10.0 mi North - - N/A   Clear
3:15 PM 81.7 °F 86.5 °F 72.1 °F 73% 30.25 in 10.0 mi North - - N/A   Scattered Clouds
3:35 PM 81.5 °F 86.3 °F 72.5 °F 74% 30.24 in 10.0 mi North - - N/A   Mostly Cloudy
3:55 PM 82.2 °F 87.1 °F 71.8 °F 71% 30.25 in 10.0 mi North - - N/A   Mostly Cloudy
4:15 PM 81.7 °F 86.7 °F 72.5 °F 74% 30.24 in 10.0 mi North - - N/A   Mostly Cloudy
4:35 PM 81.0 °F 85.8 °F 73.0 °F 77% 30.24 in 10.0 mi North - - N/A   Mostly Cloudy
4:55 PM 80.6 °F 84.7 °F 72.1 °F 75% 30.23 in 10.0 mi North - - N/A   Scattered Clouds
5:15 PM 79.7 °F - 72.0 °F 77% 30.22 in 10.0 mi North - - N/A   Clear
5:35 PM 78.1 °F - 73.0 °F 84% 30.23 in 10.0 mi North - - N/A   Clear
5:55 PM 76.8 °F - 72.9 °F 88% 30.23 in 10.0 mi North - - N/A   Clear
6:15 PM 76.3 °F - 73.4 °F 91% 30.23 in 10.0 mi North - - N/A   Clear
6:35 PM 75.6 °F - 73.6 °F 94% 30.23 in 10.0 mi North - - N/A   Clear
6:55 PM 74.3 °F - 72.9 °F 95% 30.23 in 10.0 mi North - - N/A Rain Light Rain
7:15 PM 69.8 °F - 68.0 °F 94% 30.26 in 2.5 mi North - - N/A Rain Heavy Rain
7:35 PM 68.4 °F - 67.8 °F 98% 30.24 in 7.0 mi North - - N/A Rain Rain
7:55 PM 68.4 °F - 68.2 °F 99% 30.23 in 7.0 mi North - - N/A Rain Light Rain
8:15 PM 68.2 °F - 68.2 °F 100% 30.24 in 10.0 mi North - - N/A   Scattered Clouds
8:35 PM 68.0 °F - 68.0 °F 100% 30.25 in 10.0 mi North - - N/A   Mostly Cloudy
9:15 PM 67.1 °F - 67.1 °F 100% 30.26 in 7.0 mi North - - N/A   Scattered Clouds
9:35 PM 67.1 °F - 67.1 °F 100% 30.26 in 7.0 mi North - - N/A   Scattered Clouds
9:55 PM 66.2 °F - 66.2 °F 100% 30.26 in 7.0 mi North - - N/A   Clear
10:15 PM 65.7 °F - 65.7 °F 100% 30.26 in 7.0 mi North - - N/A   Clear
10:35 PM 66.2 °F - 66.2 °F 100% 30.26 in 1.0 mi North - - N/A   Overcast
10:55 PM 66.7 °F - 66.7 °F 100% 30.27 in 7.0 mi North - - N/A   Overcast
11:15 PM 66.9 °F - 66.9 °F 100% 30.28 in 7.0 mi North - - N/A   Overcast
11:35 PM 66.7 °F - 66.7 °F 100% 30.27 in 7.0 mi North - - N/A   Overcast
11:55 PM 66.7 °F - 66.7 °F 100% 30.28 in 7.0 mi North - - N/A   Overcast